When you browse on this site, cookies collect data to enhance your experience and personalize the content and advertising you see.
Visit our Privacy Policy to learn more. By continuing to use the site, you agree to this use of cookies and data.
  • en France
  • Liste des pays
  • À 7 jours
  • Température de l'eau
  • Carte satellitaire
  • Carte météo
  • Widgets météo
  • user-avatar
    Se connecter

    Météo par heure à Galata

    Ce jour, 21 Avril, Dimanche

    Heure Température Précipitation Vent Pression Humidité
    00:00 +4°C° 0 mm 3 m/s 763 mmHg 63%
    01:00 +4°C° 0 mm 3 m/s 763 mmHg 65%
    02:00 +4°C° 0 mm 3 m/s 763 mmHg 68%
    03:00 +3°C° 0 mm 3 m/s 762 mmHg 70%
    04:00 +3°C° 0 mm 3 m/s 762 mmHg 72%
    05:00 +3°C° 0 mm 3 m/s 762 mmHg 74%
    06:00 +5°C° 0 mm 4 m/s 762 mmHg 70%
    07:00 +6°C° 0 mm 4 m/s 762 mmHg 67%
    08:00 +8°C° 0 mm 4 m/s 762 mmHg 63%
    09:00 +10°C° 0 mm 3 m/s 762 mmHg 58%
    10:00 +13°C° 0 mm 2 m/s 762 mmHg 53%
    11:00 +14°C° 0 mm 2 m/s 762 mmHg 49%
    12:00 +14°C° 0 mm 2 m/s 762 mmHg 50%
    13:00 +14°C° 0 mm 2 m/s 761 mmHg 52%
    14:00 +14°C° 0 mm 2 m/s 761 mmHg 54%
    15:00 +13°C° 0 mm 3 m/s 761 mmHg 57%
    16:00 +12°C° 0 mm 3 m/s 760 mmHg 60%
    17:00 +12°C° 0 mm 4 m/s 760 mmHg 63%
    18:00 +10°C° 0 mm 3 m/s 760 mmHg 66%
    19:00 +9°C° 0 mm 3 m/s 760 mmHg 70%
    20:00 +8°C° 0 mm 2 m/s 760 mmHg 74%
    21:00 +7°C° 0 mm 2 m/s 760 mmHg 74%
    22:00 +7°C° 0 mm 2 m/s 760 mmHg 75%
    23:00 +7°C° 0 mm 2 m/s 760 mmHg 75%

    Demain, 22 Avril, Lundi

    Heure Température Précipitation Vent Pression Humidité
    00:00 +7°C° 0 mm 2 m/s 760 mmHg 75%
    01:00 +6°C° 0 mm 2 m/s 760 mmHg 76%
    02:00 +7°C° 0 mm 1 m/s 760 mmHg 76%
    03:00 +6°C° 0 mm 2 m/s 760 mmHg 76%
    04:00 +6°C° 0 mm 2 m/s 760 mmHg 76%
    05:00 +6°C° 0 mm 2 m/s 760 mmHg 77%
    06:00 +8°C° 0 mm 3 m/s 760 mmHg 73%
    07:00 +8°C° 0 mm 4 m/s 760 mmHg 70%
    08:00 +10°C° 0 mm 4 m/s 760 mmHg 67%
    09:00 +10°C° 0 mm 5 m/s 760 mmHg 64%
    10:00 +11°C° 0 mm 6 m/s 760 mmHg 62%
    11:00 +13°C° 0 mm 6 m/s 760 mmHg 60%
    12:00 +13°C° 0 mm 6 m/s 760 mmHg 60%
    13:00 +13°C° 0 mm 6 m/s 760 mmHg 59%
    14:00 +13°C° 0 mm 6 m/s 760 mmHg 59%
    15:00 +11°C° 0 mm 6 m/s 760 mmHg 59%
    16:00 +10°C° 0 mm 5 m/s 760 mmHg 60%
    17:00 +10°C° 0 mm 5 m/s 760 mmHg 61%
    18:00 +9°C° 0 mm 5 m/s 760 mmHg 64%
    19:00 +8°C° 0 mm 4 m/s 761 mmHg 68%
    20:00 +7°C° 0 mm 4 m/s 761 mmHg 71%
    21:00 +7°C° 0 mm 4 m/s 761 mmHg 73%
    22:00 +6°C° 0 mm 4 m/s 761 mmHg 74%
    23:00 +7°C° 0 mm 3 m/s 761 mmHg 76%

    Après-demain, 23 Avril, Mardi

    Heure Température Précipitation Vent Pression Humidité
    00:00 +7°C° 0 mm 3 m/s 761 mmHg 78%
    01:00 +7°C° 0 mm 3 m/s 761 mmHg 80%
    02:00 +7°C° 0 mm 2 m/s 761 mmHg 82%
    03:00 +7°C° 0 mm 2 m/s 761 mmHg 83%
    04:00 +7°C° 0 mm 2 m/s 761 mmHg 84%
    05:00 +6°C° 0 mm 2 m/s 761 mmHg 85%
    06:00 +8°C° 0 mm 3 m/s 762 mmHg 82%
    07:00 +9°C° 0 mm 3 m/s 762 mmHg 79%
    08:00 +10°C° 0 mm 4 m/s 762 mmHg 76%
    09:00 +10°C° 0 mm 4 m/s 762 mmHg 72%
    10:00 +10°C° 0 mm 5 m/s 763 mmHg 68%
    11:00 +12°C° 0 mm 5 m/s 763 mmHg 64%
    12:00 +12°C° 0 mm 5 m/s 762 mmHg 62%
    13:00 +13°C° 0 mm 6 m/s 762 mmHg 60%
    14:00 +13°C° 0 mm 6 m/s 762 mmHg 58%
    15:00 +11°C° 0 mm 6 m/s 762 mmHg 63%
    16:00 +10°C° 0 mm 5 m/s 762 mmHg 67%
    17:00 +10°C° 0 mm 5 m/s 762 mmHg 72%
    18:00 +9°C° 0 mm 5 m/s 762 mmHg 75%
    19:00 +9°C° 0 mm 5 m/s 762 mmHg 77%
    20:00 +8°C° 0 mm 5 m/s 762 mmHg 80%
    21:00 +8°C° 0 mm 5 m/s 762 mmHg 80%
    22:00 +8°C° 0 mm 4 m/s 762 mmHg 80%
    23:00 +10°C° 0 mm 4 m/s 762 mmHg 80%

    24 Avril, Mercredi

    Heure Température Précipitation Vent Pression Humidité
    00:00 +8°C° 0 mm 4 m/s 762 mmHg 84%
    01:00 +9°C° 0 mm 3 m/s 762 mmHg 88%
    02:00 +9°C° 0 mm 3 m/s 761 mmHg 92%
    03:00 +8°C° 0 mm 3 m/s 761 mmHg 93%
    04:00 +8°C° 0 mm 3 m/s 761 mmHg 93%
    05:00 +8°C° 0 mm 3 m/s 761 mmHg 94%
    06:00 +9°C° 0 mm 3 m/s 762 mmHg 88%
    07:00 +11°C° 0 mm 4 m/s 762 mmHg 83%
    08:00 +12°C° 0 mm 4 m/s 762 mmHg 78%
    09:00 +13°C° 0 mm 4 m/s 763 mmHg 74%
    10:00 +14°C° 0 mm 4 m/s 763 mmHg 70%
    11:00 +15°C° 0 mm 4 m/s 763 mmHg 66%
    12:00 +15°C° 0 mm 4 m/s 763 mmHg 65%
    13:00 +15°C° 0 mm 4 m/s 762 mmHg 64%
    14:00 +15°C° 0 mm 4 m/s 762 mmHg 63%
    15:00 +15°C° 0 mm 5 m/s 762 mmHg 65%
    16:00 +14°C° 0 mm 5 m/s 762 mmHg 68%
    17:00 +13°C° 0 mm 5 m/s 762 mmHg 70%
    18:00 +12°C° 0 mm 4 m/s 762 mmHg 76%
    19:00 +10°C° 0 mm 3 m/s 762 mmHg 83%
    20:00 +9°C° 0 mm 3 m/s 762 mmHg 90%
    21:00 +9°C° 0 mm 3 m/s 763 mmHg 90%
    22:00 +9°C° 0 mm 2 m/s 763 mmHg 90%
    23:00 +8°C° 0 mm 2 m/s 763 mmHg 91%

    25 Avril, Jeudi

    Heure Température Précipitation Vent Pression Humidité
    00:00 +8°C° 0 mm 2 m/s 763 mmHg 90%
    01:00 +8°C° 0 mm 2 m/s 763 mmHg 90%
    02:00 +8°C° 0 mm 2 m/s 763 mmHg 89%
    03:00 +8°C° 0 mm 2 m/s 763 mmHg 90%
    04:00 +8°C° 0 mm 2 m/s 763 mmHg 90%
    05:00 +8°C° 0 mm 2 m/s 763 mmHg 91%
    06:00 +10°C° 0 mm 3 m/s 763 mmHg 86%
    07:00 +11°C° 0 mm 3 m/s 763 mmHg 81%
    08:00 +12°C° 0 mm 3 m/s 763 mmHg 77%
    09:00 +14°C° 0 mm 3 m/s 763 mmHg 72%
    10:00 +16°C° 0 mm 3 m/s 763 mmHg 68%
    11:00 +17°C° 0 mm 4 m/s 763 mmHg 64%
    12:00 +17°C° 0 mm 4 m/s 763 mmHg 64%
    13:00 +17°C° 0 mm 4 m/s 763 mmHg 64%
    14:00 +17°C° 0 mm 4 m/s 763 mmHg 64%
    15:00 +15°C° 0 mm 4 m/s 763 mmHg 67%
    16:00 +14°C° 0 mm 4 m/s 762 mmHg 69%
    17:00 +13°C° 0 mm 4 m/s 762 mmHg 72%
    18:00 +12°C° 0 mm 4 m/s 762 mmHg 77%
    19:00 +11°C° 0 mm 3 m/s 762 mmHg 83%
    20:00 +9°C° 0 mm 2 m/s 762 mmHg 89%
    21:00 +9°C° 0 mm 2 m/s 762 mmHg 89%
    22:00 +9°C° 0 mm 2 m/s 762 mmHg 89%
    23:00 +8°C° 0 mm 2 m/s 762 mmHg 89%

    26 Avril, Vendredi

    Heure Température Précipitation Vent Pression Humidité
    00:00 +8°C° 0 mm 2 m/s 762 mmHg 89%
    01:00 +8°C° 0 mm 2 m/s 761 mmHg 89%
    02:00 +8°C° 0 mm 2 m/s 761 mmHg 88%
    03:00 +8°C° 0 mm 2 m/s 761 mmHg 88%
    04:00 +8°C° 0 mm 2 m/s 761 mmHg 88%
    05:00 +8°C° 0 mm 2 m/s 761 mmHg 88%
    06:00 +10°C° 0 mm 2 m/s 761 mmHg 83%
    07:00 +12°C° 0 mm 2 m/s 761 mmHg 78%
    08:00 +13°C° 0 mm 3 m/s 761 mmHg 73%
    09:00 +14°C° 0 mm 3 m/s 760 mmHg 69%
    10:00 +16°C° 0 mm 3 m/s 760 mmHg 66%
    11:00 +17°C° 0 mm 4 m/s 760 mmHg 62%
    12:00 +17°C° 0 mm 4 m/s 760 mmHg 61%
    13:00 +17°C° 0 mm 4 m/s 759 mmHg 60%
    14:00 +17°C° 0 mm 4 m/s 759 mmHg 59%
    15:00 +17°C° 0 mm 4 m/s 759 mmHg 62%
    16:00 +15°C° 0 mm 4 m/s 758 mmHg 65%
    17:00 +14°C° 0 mm 4 m/s 758 mmHg 69%
    18:00 +13°C° 0 mm 3 m/s 758 mmHg 76%
    19:00 +12°C° 0 mm 2 m/s 758 mmHg 83%
    20:00 +10°C° 0 mm 2 m/s 758 mmHg 90%
    21:00 +9°C° 0 mm 2 m/s 758 mmHg 91%
    22:00 +10°C° 0 mm 1 m/s 757 mmHg 91%
    23:00 +10°C° 0 mm 1 m/s 757 mmHg 92%
    Voir plus